CW1734 Weather Reports


Display with metric or nautical units.
time (UTC)temp
F
wind
direction
speed
MPH
gust
MPH
rain 1hr
in
rain 24hr
in
rain mn
in
humidity
%
barometer
mb
20260902202405 65 234 6.0 12.0 0.00 0.06 0.06 92 1017.7
20260902201904 65 229 7.0 12.0 0.00 0.06 0.06 92 1017.7
20260902201404 65 233 6.0 16.0 0.00 0.06 0.06 93 1017.6
20260902200405 65 239 7.0 14.0 0.00 0.06 0.06 93 1017.6
20260902195904 65 219 6.0 12.0 0.00 0.06 0.06 93 1017.6
20260902195404 65 228 5.0 12.0 0.01 0.06 0.06 93 1017.6
20260902194905 65 215 6.0 12.0 0.01 0.06 0.06 93 1017.5
20260902193905 65 228 5.0 12.0 0.01 0.06 0.06 93 1017.5
20260902193405 65 230 6.0 12.0 0.01 0.06 0.06 93 1017.5
20260902192905 65 225 6.0 12.0 0.01 0.06 0.06 93 1017.5
20260902192404 65 227 5.0 12.0 0.01 0.06 0.06 93 1017.5
20260902191904 65 239 7.0 16.0 0.01 0.06 0.06 93 1017.5
20260902191405 65 235 9.0 17.0 0.01 0.06 0.06 93 1017.3
20260902190904 65 225 8.0 14.0 0.01 0.06 0.06 93 1017.3
20260902190404 65 218 9.0 23.0 0.01 0.06 0.06 93 1017.3
20260902185905 65 219 6.0 15.0 0.01 0.06 0.06 93 1017.3
20260902185405 65 212 7.0 15.0 0.00 0.05 0.05 93 1017.4
20260902184905 65 238 7.0 16.0 0.00 0.05 0.05 93 1017.4
20260902184405 65 219 7.0 13.0 0.00 0.05 0.05 93 1017.4
20260902183905 65 223 6.0 12.0 0.00 0.05 0.05 93 1017.4
20260902183405 65 239 6.0 14.0 0.00 0.05 0.05 93 1017.4
20260902182405 65 247 6.0 13.0 0.00 0.05 0.05 93 1017.4
20260902181904 65 228 9.0 16.0 0.00 0.05 0.05 93 1017.3
20260902181404 65 221 6.0 14.0 0.00 0.05 0.05 93 1017.3
20260902180904 65 223 8.0 18.0 0.00 0.05 0.05 93 1017.3
20260902180404 65 223 6.0 16.0 0.00 0.05 0.05 93 1017.3
20260902175904 65 233 7.0 18.0 0.00 0.05 0.05 93 1017.3
20260902175405 65 221 10.0 20.0 0.00 0.05 0.05 93 1017.3
20260902174904 65 216 9.0 20.0 0.00 0.05 0.05 93 1017.4
20260902174405 65 237 7.0 16.0 0.00 0.05 0.05 93 1017.4
20260902173904 65 239 10.0 22.0 0.00 0.05 0.05 93 1017.4
20260902173404 65 220 9.0 16.0 0.00 0.05 0.05 93 1017.5
20260902172904 65 210 7.0 17.0 0.00 0.05 0.05 93 1017.3
20260902172406 65 210 8.0 21.0 0.00 0.05 0.05 93 1017.3
20260902171404 65 218 12.0 20.0 0.00 0.05 0.05 92 1017.3
20260902170904 65 211 8.0 17.0 0.00 0.05 0.05 92 1017.3
20260902170404 65 219 12.0 22.0 0.00 0.05 0.05 92 1017.4
20260902165904 65 216 9.0 20.0 0.00 0.05 0.05 92 1017.4
20260902165404 65 220 7.0 16.0 0.00 0.05 0.05 92 1017.4
20260902164404 65 214 9.0 26.0 0.01 0.05 0.05 92 1017.6
20260902163904 65 210 13.0 25.0 0.02 0.05 0.05 92 1017.6
20260902163405 65 214 10.0 24.0 0.02 0.05 0.05 92 1017.6
20260902162904 65 215 10.0 18.0 0.02 0.05 0.05 92 1017.6
20260902162404 65 215 12.0 22.0 0.02 0.05 0.05 92 1017.6
20260902161904 65 207 12.0 21.0 0.02 0.05 0.05 92 1017.7
20260902161404 64 197 9.0 21.0 0.02 0.05 0.05 92 1017.7
20260902160905 64 197 12.0 20.0 0.02 0.05 0.05 92 1017.8
20260902160404 64 212 10.0 18.0 0.02 0.05 0.05 92 1017.8
20260902154904 64 206 9.0 22.0 0.02 0.05 0.05 91 1018.3
20260902154404 64 214 10.0 21.0 0.02 0.04 0.04 91 1018.3
20260902153904 64 216 12.0 22.0 0.02 0.03 0.03 91 1018.3
20260902153405 64 205 9.0 16.0 0.03 0.03 0.03 91 1018.3
20260902152905 64 235 7.0 16.0 0.03 0.03 0.03 91 1018.3
20260902152404 64 212 12.0 20.0 0.03 0.03 0.03 91 1018.3
20260902151404 64 215 9.0 17.0 0.03 0.03 0.03 90 1018.6
20260902145904 64 208 7.0 16.0 0.02 0.02 0.02 89 1018.6
20260902145405 64 206 10.0 20.0 0.02 0.02 0.02 89 1018.5
20260902144904 64 201 12.0 20.0 0.02 0.02 0.02 88 1018.5
20260902144405 65 207 12.0 18.0 0.02 0.02 0.02 88 1018.5
20260902143905 65 204 10.0 24.0 0.01 0.01 0.01 87 1018.8
20260902143404 65 195 11.0 20.0 0.00 0.00 0.00 86 1018.8
20260902142904 66 209 9.0 15.0 0.00 0.00 0.00 85 1018.8
20260902142404 66 208 10.0 20.0 0.00 0.00 0.00 83 1018.8
20260902141905 66 195 10.0 24.0 0.00 0.00 0.00 81 1018.8
20260902141404 67 215 13.0 23.0 0.00 0.00 0.00 78 1018.8
20260902140904 68 213 7.0 18.0 0.00 0.00 0.00 77 1018.8
20260902140404 67 211 10.0 21.0 0.00 0.00 0.00 77 1018.8
20260902135905 67 202 10.0 20.0 0.00 0.00 0.00 77 1019.1
20260902135404 68 198 14.0 23.0 0.00 0.00 0.00 77 1019.1
20260902134904 67 211 11.0 20.0 0.00 0.00 0.00 78 1019.1
20260902134405 67 230 9.0 16.0 0.00 0.00 0.00 78 1019.1
20260902133904 68 215 8.0 17.0 0.00 0.00 0.00 78 1019.1
20260902133405 68 236 9.0 23.0 0.00 0.00 0.00 75 1019.1
20260902132904 69 206 9.0 20.0 0.00 0.00 0.00 73 1019.1
20260902132404 69 168 12.0 20.0 0.00 0.00 0.00 71 1019.1
20260902131904 69 214 11.0 22.0 0.00 0.00 0.00 70 1019.0
20260902130404 69 231 11.0 20.0 0.00 0.00 0.00 69 1019.1
20260902125404 69 206 10.0 21.0 0.00 0.00 0.00 69 1019.2
20260902124905 68 217 5.0 15.0 0.00 0.00 0.00 71 1019.2
20260902124404 68 208 10.0 20.0 0.00 0.00 0.00 71 1019.4
20260902121904 69 211 9.0 25.0 0.00 0.00 0.00 70 1019.4
20260902121404 69 204 11.0 22.0 0.00 0.00 0.00 71 1019.6
20260902120904 69 211 9.0 20.0 0.00 0.00 0.00 70 1019.6
20260902120405 69 199 12.0 24.0 0.00 0.00 0.00 70 1019.6
20260902114905 68 195 10.0 24.0 0.00 0.00 0.00 70 1019.6
20260902113905 68 214 10.0 21.0 0.00 0.00 0.00 71 1019.6
20260902113404 68 204 12.0 22.0 0.00 0.00 0.00 70 1019.6
20260902112905 68 208 12.0 21.0 0.00 0.00 0.00 70 1019.6
20260902112405 68 189 14.0 22.0 0.00 0.00 0.00 69 1019.6
20260902111904 68 230 10.0 20.0 0.00 0.00 0.00 70 1019.7
20260902111404 68 215 8.0 14.0 0.00 0.00 0.00 71 1019.7
20260902110904 68 201 12.0 22.0 0.00 0.00 0.00 72 1019.7
20260902110404 68 181 11.0 18.0 0.00 0.00 0.00 72 1019.8
20260902105404 68 212 10.0 16.0 0.00 0.00 0.00 72 1019.8
20260902104905 67 189 10.0 18.0 0.00 0.00 0.00 74 1020.0
20260902104405 67 208 9.0 18.0 0.00 0.00 0.00 74 1020.0
20260902103904 67 216 9.0 20.0 0.00 0.00 0.00 73 1020.0
20260902103405 67 191 9.0 18.0 0.00 0.00 0.00 73 1020.0
20260902102904 68 226 8.0 14.0 0.00 0.00 0.00 74 1020.0
20260902102405 67 204 7.0 17.0 0.00 0.00 0.00 75 1020.0
20260902101404 67 208 10.0 20.0 0.00 0.00 0.00 76 1020.0
20260902100904 67 214 11.0 20.0 0.00 0.00 0.00 76 1020.0
20260902100404 67 211 7.0 15.0 0.00 0.00 0.00 76 1020.0
20260902095404 67 214 9.0 18.0 0.00 0.00 0.00 76 1020.0
20260902094904 67 203 6.0 13.0 0.00 0.00 0.00 76 1020.0
20260902094404 67 216 8.0 15.0 0.00 0.00 0.00 75 1020.0
20260902093904 67 205 9.0 15.0 0.00 0.00 0.00 75 1019.9
20260902093404 67 212 11.0 17.0 0.00 0.00 0.00 75 1019.9
20260902092904 67 208 7.0 20.0 0.00 0.00 0.00 75 1019.9
20260902092404 67 193 9.0 17.0 0.00 0.00 0.00 75 1019.9
20260902091905 67 203 11.0 20.0 0.00 0.00 0.00 76 1019.9
20260902091404 67 233 7.0 15.0 0.00 0.00 0.00 76 1019.9
20260902085404 66 219 10.0 17.0 0.00 0.00 0.00 79 1019.9
20260902084404 66 213 10.0 17.0 0.00 0.00 0.00 79 1019.9
20260902083404 66 196 7.0 16.0 0.00 0.00 0.00 81 1019.9
20260902082904 66 225 7.0 14.0 0.00 0.00 0.00 81 1019.8
20260902082405 66 219 6.0 15.0 0.00 0.00 0.00 82 1019.8
20260902081904 66 196 7.0 14.0 0.00 0.00 0.00 82 1019.8
20260902080904 66 217 7.0 12.0 0.00 0.00 0.00 82 1019.4
20260902080405 66 209 7.0 13.0 0.00 0.00 0.00 82 1019.4
20260902075404 66 210 7.0 14.0 0.00 0.00 0.00 82 1019.4
20260902074404 66 221 6.0 14.0 0.00 0.00 0.00 83 1019.3
20260902073904 66 204 7.0 16.0 0.00 0.00 0.00 83 1019.3
20260902073405 65 208 5.0 14.0 0.00 0.00 0.00 84 1019.3
20260902072904 65 221 5.0 15.0 0.00 0.00 0.00 84 1019.3
20260902072404 65 208 5.0 13.0 0.00 0.00 0.00 84 1019.3
20260902071904 65 209 4.0 7.0 0.00 0.00 0.00 84 1019.3
20260902071404 65 200 5.0 12.0 0.00 0.00 0.00 84 1019.3
20260902070904 65 197 6.0 10.0 0.00 0.00 0.00 84 1019.4
20260902070404 64 219 5.0 9.0 0.00 0.00 0.00 84 1019.4
20260902065905 64 204 5.0 10.0 0.00 0.00 0.00 84 1019.4
20260902065404 64 199 5.0 9.0 0.00 0.00 0.00 84 1019.4
20260902064904 64 212 4.0 7.0 0.00 0.00 0.00 84 1019.2
20260902064404 64 194 3.0 8.0 0.00 0.00 0.00 84 1019.2
20260902063904 64 207 5.0 8.0 0.00 0.00 0.00 84 1019.2
20260902063405 64 211 7.0 12.0 0.00 0.00 0.00 84 1019.2
20260902062904 64 223 3.0 7.0 0.00 0.00 0.00 85 1019.2
20260902062404 64 205 4.0 8.0 0.00 0.00 0.00 85 1019.2
20260902060404 62 204 2.0 5.0 0.00 0.00 0.00 88 1019.2
20260902055904 61 197 3.0 5.0 0.00 0.00 0.00 89 1019.2
20260902055404 61 203 2.0 5.0 0.00 0.00 0.00 89 1019.1
20260902054905 60 208 2.0 3.0 0.00 0.00 0.00 89 1019.1
20260902054404 60 198 3.0 6.0 0.00 0.00 0.00 89 1019.1
20260902053904 60 196 0.0 0.0 0.00 0.00 0.00 89 1019.1
20260902053404 60 197 0.0 0.0 0.00 0.00 0.00 88 1019.1
20260902052904 60 197 0.0 0.0 0.00 0.00 0.00 88 1019.1
20260902052404 60 197 0.0 0.0 0.00 0.00 0.00 88 1019.1
20260902051904 60 197 1.0 3.0 0.00 0.00 0.00 89 1019.1
20260902051404 60 198 3.0 7.0 0.00 0.00 0.00 89 1019.1
20260902050905 60 215 2.0 3.0 0.00 0.00 0.00 89 1019.1
20260902050405 60 209 2.0 3.0 0.00 0.00 0.00 89 1019.2
20260902045904 60 197 2.0 3.0 0.00 0.00 0.00 89 1019.2
20260902044904 60 183 0.0 0.0 0.00 0.00 0.00 88 1019.2
20260902043904 60 183 0.0 0.0 0.00 0.00 0.00 88 1019.1
20260902043404 61 182 1.0 3.0 0.00 0.00 0.00 88 1019.1
20260902042904 61 181 1.0 3.0 0.00 0.00 0.00 88 1019.3
20260902042404 61 181 2.0 3.0 0.00 0.00 0.00 88 1019.3
20260902041404 61 200 2.0 3.0 0.00 0.00 0.00 88 1019.3
20260902040404 61 213 2.0 5.0 0.00 0.00 0.00 88 1019.3
20260902035904 61 210 3.0 5.0 0.00 0.00 0.00 88 1019.3
20260902035404 61 208 2.0 3.0 0.00 0.00 0.00 88 1019.3
20260902034905 61 209 0.0 0.0 0.00 0.00 0.00 88 1019.3
20260902034405 61 213 0.0 0.0 0.00 0.00 0.00 88 1019.3
20260902033904 61 213 0.0 0.0 0.00 0.00 0.00 88 1019.3
20260902033405 61 213 1.0 3.0 0.00 0.00 0.00 88 1019.3
20260902032905 61 193 0.0 0.0 0.00 0.00 0.00 88 1019.3
20260902032404 61 218 2.0 3.0 0.00 0.00 0.00 87 1019.3
20260902031904 61 214 1.0 3.0 0.00 0.00 0.00 88 1019.3
20260902031404 62 214 2.0 5.0 0.00 0.00 0.00 88 1019.3
20260902030904 62 203 2.0 5.0 0.00 0.00 0.00 88 1019.3
20260902030404 62 203 3.0 3.0 0.00 0.00 0.00 88 1019.3
20260902025904 62 182 2.0 3.0 0.00 0.00 0.00 88 1019.6
20260902024905 62 216 2.0 5.0 0.00 0.00 0.00 88 1019.7
20260902024405 62 204 2.0 3.0 0.00 0.00 0.00 88 1019.7
20260902023904 62 189 0.0 0.0 0.00 0.00 0.00 88 1019.8
20260902022905 62 189 0.0 0.0 0.00 0.00 0.00 88 1019.7
20260902022404 62 188 0.0 0.0 0.00 0.00 0.00 88 1019.9
20260902021905 62 187 0.0 0.0 0.00 0.00 0.00 87 1019.9
20260902020904 62 187 0.0 0.0 0.00 0.00 0.00 87 1019.9
20260902020404 62 187 0.0 0.0 0.00 0.00 0.00 87 1019.9
20260902014904 62 187 0.0 0.0 0.00 0.00 0.00 87 1019.8
20260902014404 62 188 0.0 0.0 0.00 0.00 0.00 87 1019.9
20260902013904 62 191 0.0 0.0 0.00 0.00 0.00 87 1019.9
20260902013404 62 189 0.0 0.0 0.00 0.00 0.00 87 1020.0
20260902012904 62 186 2.0 3.0 0.00 0.00 0.00 87 1020.0
20260902011904 62 206 0.0 0.0 0.00 0.00 0.00 87 1020.3
20260902011404 62 214 0.0 0.0 0.00 0.00 0.00 87 1020.3
20260902010905 62 215 0.0 1.0 0.00 0.00 0.00 87 1020.3
20260902010404 62 215 0.0 0.0 0.00 0.00 0.00 87 1020.3
20260902005905 62 214 0.0 1.0 0.00 0.00 0.00 88 1020.3
20260902004904 62 214 0.0 0.0 0.00 0.00 0.00 88 1020.3
20260902004405 62 227 0.0 0.0 0.00 0.00 0.00 88 1020.3
20260902003404 62 254 1.0 5.0 0.00 0.00 0.00 88 1020.3
20260902002904 62 267 1.0 5.0 0.00 0.00 0.00 88 1020.3
20260902002404 62 257 1.0 3.0 0.00 0.00 0.00 88 1020.3
20260902001904 62 221 0.0 0.0 0.00 0.00 0.00 88 1020.3
20260902001405 62 220 0.0 2.0 0.00 0.00 0.00 88 1020.3
20260902000904 62 216 2.0 3.0 0.00 0.00 0.00 88 1020.3
20260902000406 62 204 1.0 3.0 0.00 0.00 0.00 88 1020.3
20260901235904 62 183 1.0 3.0 0.00 0.00 0.00 87 1020.3
20260901235404 62 211 0.0 0.0 0.00 0.00 0.00 87 1020.3
20260901233904 62 212 0.0 0.0 0.00 0.00 0.00 87 1020.2
20260901233404 62 210 0.0 0.0 0.00 0.00 0.00 87 1020.2
20260901232904 62 215 0.0 0.0 0.00 0.00 0.00 87 1020.3
20260901232405 62 223 0.0 3.0 0.00 0.00 0.00 87 1020.2
20260901231904 62 215 2.0 3.0 0.00 0.00 0.00 87 1020.2
20260901231404 62 216 2.0 5.0 0.00 0.00 0.00 87 1020.2
20260901230905 62 205 2.0 3.0 0.00 0.00 0.00 87 1020.2
20260901225404 62 214 2.0 3.0 0.00 0.00 0.00 87 1020.2
20260901224904 62 206 2.0 3.0 0.00 0.00 0.00 87 1020.2
20260901224404 62 197 2.0 3.0 0.00 0.00 0.00 86 1020.2
20260901223904 62 195 3.0 5.0 0.00 0.00 0.00 86 1020.3
20260901223404 62 211 0.0 0.0 0.00 0.00 0.00 86 1020.3
20260901222904 62 215 0.0 0.0 0.00 0.00 0.00 86 1020.3
20260901222406 62 214 0.0 0.0 0.00 0.00 0.00 85 1020.3
20260901221904 62 213 0.0 3.0 0.00 0.00 0.00 86 1020.3
20260901221404 63 213 0.0 3.0 0.00 0.00 0.00 86 1020.4
20260901220405 63 241 1.0 2.0 0.00 0.00 0.00 85 1020.4
20260901215405 63 247 1.0 3.0 0.00 0.00 0.00 85 1020.4
20260901214904 63 256 2.0 3.0 0.00 0.00 0.00 85 1020.4
20260901214404 63 260 1.0 5.0 0.00 0.00 0.00 85 1020.5
20260901213904 63 262 1.0 3.0 0.00 0.00 0.00 85 1020.5
20260901213404 63 240 1.0 3.0 0.00 0.00 0.00 85 1020.5
20260901212905 63 270 1.0 3.0 0.00 0.00 0.00 85 1020.5
20260901211904 63 223 1.0 2.0 0.00 0.00 0.00 85 1020.5
20260901211404 63 223 1.0 3.0 0.00 0.00 0.00 85 1020.5
20260901210905 63 222 1.0 3.0 0.00 0.00 0.00 85 1020.5
20260901210404 63 222 1.0 3.0 0.00 0.00 0.00 85 1020.5
20260901205904 63 254 0.0 3.0 0.00 0.00 0.00 84 1020.5
20260901204904 63 262 2.0 3.0 0.00 0.00 0.00 84 1020.5
20260901204404 63 226 1.0 3.0 0.00 0.00 0.00 84 1020.5
20260901203904 63 190 1.0 5.0 0.00 0.00 0.00 84 1020.5